Погода в Победном

Россия / Орловская область     53°00′56″N   36°39′37″E
темп.,
°C
ветер,
м/с
пор.,
м/с
влажн.,
%
обл.,
%
осадки,
мм/ч
давл.,
гПа
погр.,
м
13 июня, вс
вс1300:00+14з1188100 0.0 100810
03:00+13зюз2291100 0.0 100711
06:00+14юз23930 0.0 100899
09:00+18юз338289 0.0 1008617
12:00+21ююз4466100 0.1 10081204
15:00+22ююз566794 0.3 10081350
18:00+20ююз46815 0.7 1008812
21:00+16ююз379395 1.7 1009125
14 июня, пн
пн1400:00+15ююз3593100 0.0 101080
03:00+14ююз229437 0.0 101129
06:00+15ююв239341 0.0 1012107
09:00+19ю347847 0.0 1014449
12:00+22ююз236751 1.0 1014867
15:00+23ю12638 2.3 10151208
18:00+22юв227495 2.4 1015123
21:00+18ююв11839 2.7 101511
15 июня, вт
вт1500:00+17всв11845 0.0 101511
03:00+15всв11875 0.0 101511
06:00+17вюв11880 0.0 101545
09:00+21ссв227845 0.0 1014463
12:00+23ссв226855 0.4 10131121
15:00+24с2267100 1.8 10121119
18:00+22ссв237995 2.9 1011305
21:00+18с338969 4.5 101133
16 июня, ср
ср1600:00+17с3694100 0.3 1011100
03:00+15с389669 0.3 1011161
06:00+15с4109354 0.0 1011282
09:00+19с68807 0.0 1011542
12:00+22с676919 0.0 10111083
15:00+22с786914 0.0 10121315
18:00+21ссв610732 0.0 1013942
21:00+18ссв512880 0.0 1015324
17 июня, чт
чт1700:00+15ссв412933 0.0 1016323
03:00+14св513895 0.0 1018355
06:00+13ссв511830 0.0 1020277
09:00+17св610660 0.0 1021597
12:00+20св78580 0.0 10221234
15:00+20св68592 0.0 10221415
18:00+19св57700 0.0 10231007
21:00+14св410860 0.0 1024197